Gorizont

operational
NORAD ID: 11158 Int'l Des: 1978-118 Owner: MSVYAZ Country: SU
HEOELLIPTICALGSOHEO_ELLIPTICAL

Über Gorizont

Beschreibung wird geladen...

Live-Position

3D-Globus wird geladen...

Nächste Überflüge

Höhenverlauf

Altitude vs Time

uPlot chart will show altitude changes over time

Zweizeiliger Elementsatz

1 11158U 78118A 26060.73086270 -.00000302 00000-0 00000+0 0 9993
2 11158 12.2225 157.4918 3071435 354.0120 2.9647 1.00256876121866
Epoch: 1. März 2026 • Age: 71 hours

Aktueller Status

Höhe 38438.4 km
Geschwindigkeit 2.89 km/s
Subsatellitenpunkt 11.30°N, 126.57°E
Startdatum 19. Dez. 1978
Alter 47.2 years
Typ other

Technische Details

Klassifizierung Payload
Masse 2120.00 kg
Trockenmasse 2000.00 kg
Gesamtmasse 2120.00 kg
Länge 5.50 m
Durchmesser 3.30 m
Spannweite 9.50 m
Form Cyl + 2 Pan
Hersteller NPOPM
Bus-Typ Gorizont
Phasenstatus In Orbit
Besitzer/Staat MSVYAZ/SU

Große Konstellationen

Loading constellations...